Weather History for KPZQ - October, 2012

Change the Weather History Date:

Friday, October 5, 2012

  Actual Average (KAPN) Record (KAPN)
Temperature  
Mean Temperature 52 °F 50 °F  
Max Temperature 61 °F 61 °F 85 °F (2005)
Min Temperature 43 °F 40 °F 19 °F (1965)
Degree Days  
Heating Degree Days 12 15  
Month to date heating degree days 71  
Since 1 July heating degree days 428  
Cooling Degree Days 0 0  
Month to date cooling degree days 0  
Year to date cooling degree days 289  
Growing Degree Days 2 (Base 50)    
Moisture  
Dew Point 35 °F    
Average Humidity 55    
Maximum Humidity 70    
Minimum Humidity 35    
Precipitation  
Precipitation 0.00 in 0.10 in 0.54 in (1959)
Month to date precipitation 0.48  
Year to date precipitation 22.18  
Snow  
Snow 0.00 in 0.00 in - ()
Month to date snowfall 0.0  
Since 1 July snowfall 0.0  
Snow Depth -    
Sea Level Pressure  
Sea Level Pressure 29.90 in    
Wind  
Wind Speed 10 mph (WSW)    
Max Wind Speed 18 mph    
Max Gust Speed 26 mph    
Visibility 10 miles    
Events      
T = Trace of Precipitation, MM = Missing Value Source: NWS Daily Summary

Daily Weather History Graph

Daily Weather History Graph

Search for Another Location

Airport or City:

Trip Planner

Search our weather history database for the weather conditions in past years. The results will help you decide how hot, cold, wet, or windy it might be!

Date:

Astronomy

Oct. 05, 2012 Rise Set
Actual Time 7:39 AM EDT 7:07 PM EDT
Civil Twilight 7:09 AM EDT 7:36 PM EDT
Nautical Twilight 6:35 AM EDT 8:10 PM EDT
Astronomical Twilight 6:00 AM EDT 8:45 PM EDT
Moon 10:16 PM EDT (10/5) 12:59 PM EDT (10/5)
Length of Visible Light 12h 27m
Length of Day
11h 28m
Waning Gibbous, 74% of the Moon is Illuminated
Oct 5
Waning Gibbous
Oct 8
Last Quarter
Oct 15
New
Oct 21
First Quarter
Oct 29
Full

Hourly Weather History & Observations

Time (EDT) Temp. Windchill Dew Point Humidity Pressure Visibility Wind Dir Wind Speed Gust Speed Precip Events Conditions
12:14 AM 61.9 °F - 46.2 °F 56% 29.87 in 10.0 mi West 6.9 mph 18.4 mph N/A   Mostly Cloudy
12:35 AM 61.2 °F - 43.7 °F 53% 29.87 in 10.0 mi West 12.7 mph 17.3 mph N/A   Mostly Cloudy
12:55 AM 60.4 °F - 43.0 °F 53% 29.87 in 10.0 mi West 12.7 mph 19.6 mph N/A   Scattered Clouds
1:14 AM 59.4 °F - 42.6 °F 54% 29.88 in 10.0 mi WSW 13.8 mph 26.5 mph N/A   Scattered Clouds
1:35 AM 58.1 °F - 42.1 °F 55% 29.88 in 10.0 mi West 8.1 mph 16.1 mph N/A   Clear
1:55 AM 56.8 °F - 41.2 °F 56% 29.89 in 10.0 mi West 15.0 mph 20.7 mph N/A   Clear
2:14 AM 55.9 °F - 41.0 °F 57% 29.89 in 10.0 mi West 9.2 mph - N/A   Clear
2:35 AM 54.7 °F - 41.0 °F 60% 29.90 in 10.0 mi West 8.1 mph - N/A   Clear
2:54 AM 54.1 °F - 39.9 °F 59% 29.90 in 10.0 mi WSW 11.5 mph 18.4 mph N/A   Clear
3:14 AM 53.2 °F - 39.6 °F 60% 29.90 in 10.0 mi West 11.5 mph 20.7 mph N/A   Clear
3:35 AM 52.0 °F - 38.1 °F 59% 29.90 in 10.0 mi West 11.5 mph 20.7 mph N/A   Clear
3:54 AM 51.1 °F - 37.8 °F 60% 29.90 in 10.0 mi WSW 9.2 mph - N/A   Clear
4:15 AM 50.5 °F - 37.8 °F 62% 29.90 in 10.0 mi WSW 10.4 mph 18.4 mph N/A   Clear
4:35 AM 49.5 °F - 37.4 °F 63% 29.91 in 10.0 mi WSW 9.2 mph - N/A   Clear
4:54 AM 48.9 °F - 37.2 °F 64% 29.91 in 10.0 mi WSW 4.6 mph - N/A   Scattered Clouds
5:15 AM 48.2 °F - 37.2 °F 66% 29.91 in 10.0 mi WSW 8.1 mph - N/A   Mostly Cloudy
5:35 AM 48.4 °F - 36.7 °F 64% 29.92 in 10.0 mi WSW 10.4 mph 16.1 mph N/A   Mostly Cloudy
5:54 AM 48.2 °F - 36.0 °F 63% 29.93 in 10.0 mi WSW 10.4 mph 16.1 mph N/A   Scattered Clouds
6:15 AM 47.7 °F - 35.8 °F 63% 29.93 in 10.0 mi WSW 9.2 mph 16.1 mph N/A   Scattered Clouds
6:34 AM 48.2 °F - 35.4 °F 61% 29.91 in 10.0 mi West 9.2 mph - N/A   Mostly Cloudy
6:54 AM 47.5 °F - 35.2 °F 63% 29.92 in 10.0 mi West 9.2 mph 18.4 mph N/A   Scattered Clouds
7:14 AM 46.8 °F - 35.2 °F 64% 29.93 in 10.0 mi West 8.1 mph - N/A   Scattered Clouds
7:34 AM 46.2 °F 43.3 °F 34.9 °F 65% 29.93 in 10.0 mi WSW 5.8 mph - N/A   Clear
7:55 AM 46.4 °F 42.9 °F 35.6 °F 66% 29.94 in 10.0 mi SW 6.9 mph - N/A   Mostly Cloudy
8:14 AM 46.6 °F - 35.6 °F 66% 29.93 in 10.0 mi WSW 8.1 mph - N/A   Mostly Cloudy
8:34 AM 46.8 °F - 36.3 °F 67% 29.94 in 10.0 mi SSW 3.5 mph - N/A   Overcast
8:55 AM 47.3 °F - 36.5 °F 66% 29.94 in 10.0 mi SW 4.6 mph - N/A   Overcast
9:14 AM 47.8 °F - 36.5 °F 65% 29.94 in 10.0 mi SW 4.6 mph - N/A   Overcast
9:35 AM 48.7 °F - 35.8 °F 61% 29.94 in 10.0 mi West 10.4 mph - N/A   Mostly Cloudy
9:55 AM 49.8 °F - 34.5 °F 56% 29.93 in 10.0 mi West 15.0 mph 23.0 mph N/A   Mostly Cloudy
10:14 AM 49.1 °F - 33.8 °F 56% 29.93 in 10.0 mi West 8.1 mph 21.9 mph N/A   Overcast
10:35 AM 49.6 °F - 34.3 °F 56% 29.94 in 10.0 mi West 11.5 mph 17.3 mph N/A   Overcast
10:55 AM 50.4 °F - 34.7 °F 55% 29.93 in 10.0 mi West 11.5 mph 17.3 mph N/A   Overcast
11:14 AM 50.9 °F - 35.2 °F 55% 29.93 in 10.0 mi WSW 16.1 mph 20.7 mph N/A   Overcast
11:35 AM 52.3 °F - 34.3 °F 50% 29.93 in 10.0 mi West 13.8 mph 25.3 mph N/A   Mostly Cloudy
11:54 AM 50.5 °F - 34.0 °F 53% 29.93 in 10.0 mi West 12.7 mph 20.7 mph N/A   Mostly Cloudy
12:15 PM 51.8 °F - 34.7 °F 52% 29.93 in 10.0 mi West 11.5 mph 21.9 mph N/A   Mostly Cloudy
12:34 PM 52.7 °F - 33.6 °F 48% 29.93 in 10.0 mi West 12.7 mph 19.6 mph N/A   Mostly Cloudy
12:55 PM 53.2 °F - 34.2 °F 48% 29.93 in 10.0 mi SW 18.4 mph 21.9 mph N/A   Scattered Clouds
1:14 PM 53.6 °F - 33.1 °F 46% 29.93 in 10.0 mi SW 15.0 mph 25.3 mph N/A   Scattered Clouds
1:34 PM 52.9 °F - 32.0 °F 45% 29.92 in 10.0 mi WSW 12.7 mph 23.0 mph N/A   Clear
1:55 PM 53.6 °F - 32.7 °F 45% 29.91 in 10.0 mi SW 16.1 mph 21.9 mph N/A   Clear
2:35 PM 55.4 °F - 31.5 °F 40% 29.90 in 10.0 mi West 17.3 mph 20.7 mph N/A   Clear
2:54 PM 55.4 °F - 31.1 °F 40% 29.89 in 10.0 mi West 16.1 mph 21.9 mph N/A   Clear
3:14 PM 55.9 °F - 30.6 °F 38% 29.88 in 10.0 mi WSW 12.7 mph 24.2 mph N/A   Clear
3:35 PM 55.8 °F - 29.5 °F 37% 29.88 in 10.0 mi West 16.1 mph 23.0 mph N/A   Clear
3:54 PM 55.9 °F - 28.8 °F 35% 29.88 in 10.0 mi WSW 13.8 mph 18.4 mph N/A   Clear
4:15 PM 55.9 °F - 28.8 °F 35% 29.87 in 10.0 mi SW 16.1 mph 24.2 mph N/A   Clear
4:35 PM 55.8 °F - 28.0 °F 35% 29.87 in 10.0 mi SW 12.7 mph 18.4 mph N/A   Clear
4:54 PM 54.1 °F - 28.8 °F 38% 29.87 in 10.0 mi WSW 10.4 mph 17.3 mph N/A   Clear
5:15 PM 54.3 °F - 30.9 °F 41% 29.87 in 10.0 mi West 6.9 mph - N/A   Clear
5:34 PM 53.6 °F - 30.7 °F 42% 29.87 in 10.0 mi West 9.2 mph - N/A   Clear
5:54 PM 52.7 °F - 33.1 °F 47% 29.88 in 10.0 mi West 6.9 mph - N/A   Clear
6:15 PM 51.1 °F - 34.3 °F 53% 29.87 in 10.0 mi West 9.2 mph - N/A   Clear
6:34 PM 50.2 °F - 34.2 °F 54% 29.88 in 10.0 mi West 9.2 mph - N/A   Clear
6:55 PM 49.1 °F - 34.3 °F 57% 29.88 in 10.0 mi West 6.9 mph - N/A   Clear
7:14 PM 49.1 °F - 33.8 °F 56% 29.89 in 10.0 mi West 10.4 mph 17.3 mph N/A   Scattered Clouds
7:34 PM 49.3 °F - 33.4 °F 54% 29.88 in 10.0 mi WSW 9.2 mph - N/A   Overcast
7:55 PM 49.1 °F - 33.8 °F 56% 29.88 in 10.0 mi WSW 6.9 mph - N/A   Overcast
8:14 PM 49.1 °F - 33.8 °F 56% 29.87 in 10.0 mi WSW 5.8 mph - N/A   Overcast
8:35 PM 49.1 °F - 33.8 °F 56% 29.87 in 10.0 mi WSW 5.8 mph - N/A   Overcast
8:55 PM 48.7 °F - 33.8 °F 56% 29.87 in 10.0 mi SSW 5.8 mph - N/A   Overcast
9:14 PM 48.6 °F - 33.8 °F 57% 29.86 in 10.0 mi SSW 5.8 mph - N/A   Overcast
9:35 PM 48.4 °F - 33.8 °F 57% 29.86 in 10.0 mi SSW 6.9 mph - N/A   Overcast
9:55 PM 48.2 °F - 33.8 °F 58% 29.85 in 10.0 mi SSW 8.1 mph - N/A   Overcast
10:14 PM 48.2 °F - 33.6 °F 57% 29.85 in 10.0 mi SW 8.1 mph - N/A   Overcast
10:35 PM 48.4 °F - 33.3 °F 56% 29.86 in 10.0 mi West 8.1 mph 18.4 mph N/A   Overcast
10:54 PM 46.2 °F 42.2 °F 33.4 °F 61% 29.86 in 10.0 mi West 8.1 mph 18.4 mph N/A   Overcast
11:15 PM 45.5 °F 42.5 °F 34.0 °F 64% 29.86 in 10.0 mi West 5.8 mph - N/A   Overcast
11:34 PM 44.6 °F 39.2 °F 34.3 °F 67% 29.86 in 10.0 mi WNW 10.4 mph - N/A   Overcast
11:55 PM 43.9 °F 40.5 °F 34.5 °F 70% 29.86 in 10.0 mi WNW 5.8 mph - N/A   Overcast